Location: Unspecified
(43.3830°N, 0.0000°E)
Time: 15:26:45
(UTC+00:00)

Explorer 7 - Pass Details

Date: 25 June 2019
Orbit: 485 x 680 km, 50.3° (Epoch: 21 July)

Event Time Altitude Azimuth Distance (km) Brightness Sun altitude
Rises 07:13:32 0° 222° (SW) 2,671 9.9 28.4°
Reaches altitude 10° 07:15:44 10° 217° (SW) 1,814 9.2 28.8°
Maximum altitude 07:19:43 49° 142° (SE) 746 8.3 29.5°
Drops below altitude 10° 07:24:01 10° 68° (ENE) 1,944 11.0 30.3°
Sets 07:26:26 0° 63° (ENE) 2,886 11.4 30.8°
